[[{"header":{"parameterUnit":"m.s-1","parameterCategory":1,"la1":30.2991,"la2":30.254,"lo1":-89.0895,"lo2":-89.0444,"dy":0.0017,"dx":0.0017,"nx":28,"ny":28,"refTime":"2024-06-04T09:00:00:Z","depth":0,"parameterNumber":2,"parameterNumberName":"U-component_of_WINDS"},"data":[0,0,0,0,0,0,0,0,0,0,0,0,0,0,0,0,0,0,0,0,0,0,0,0,0,0,0,0,0,0,0,0,0,0,0,0,0,0,0,0,0,0,0,0,0,0,0,0,0,0,0,0,0,0,0,0,0,0,2.1118,2.1119,0,2.1192,2.1193,2.1194,2.1168,2.1167,2.1165,2.1163,2.1238,2.1241,2.1245,0,0,0,0,0,0,0,0,0,0,0,0,0,2.0951,2.0954,2.1118,2.1119,2.112,2.1192,2.1193,2.1194,2.1169,2.1167,2.1165,2.1163,2.1237,2.1241,2.1245,0,0,0,0,0,0,0,0,0,0,0,0,0,2.1024,2.0955,2.1118,2.1116,2.1116,2.1192,2.1193,2.1194,2.1169,2.1167,2.1164,2.1162,2.1235,2.1241,2.1246,2.1327,0,0,2.1262,2.1264,0,0,0,0,0,0,0,0,2.102,2.103,2.1115,2.1116,2.1117,2.1168,2.1161,2.1238,2.117,2.1149,2.1163,2.1161,2.1217,2.1223,2.1242,2.133,2.1333,2.1262,2.1265,2.1268,2.1269,0,0,0,0,0,0,0,2.1015,2.1027,2.1147,2.1116,2.1117,2.111,2.1118,2.1176,2.1195,2.1151,2.1149,2.1158,2.1217,2.1238,2.1244,2.1334,2.1262,2.1267,2.127,2.1272,2.1489,2.1492,0,0,0,0,0,0,2.101,2.1023,2.1145,2.1149,2.1062,2.1115,2.1124,2.1154,2.1195,2.1199,2.116,2.1157,2.123,2.1238,2.1247,2.1342,2.1268,2.1272,2.1275,2.1486,2.149,2.1492,0,0,0,0,0,0,2.1006,2.1021,2.1142,2.1086,2.11,2.1121,2.1155,2.1157,2.1178,2.1202,2.1205,2.1178,2.1228,2.1239,2.1306,2.1344,2.1275,2.128,2.1483,2.1487,2.1491,2.1535,0,0,0,0,0,0,2.1002,2.102,2.1052,2.1087,2.1104,2.1201,2.1157,2.116,2.1187,2.1183,2.122,2.1223,2.1227,2.1299,2.1312,2.135,2.1284,2.148,2.1485,2.149,2.153,2.1539,2.1548,0,0,0,0,0,2.0996,2.1061,2.1054,2.1068,2.1144,2.1204,2.1213,2.1217,2.119,2.1222,2.1237,2.1222,2.1338,2.1306,2.132,2.1361,2.1478,2.1484,2.1489,2.1526,2.1538,2.1548,0,0,0,0,0,0,2.1031,2.1066,2.1058,2.1137,2.1167,2.1199,2.1239,2.1229,2.1268,2.1263,2.1265,2.1273,2.1342,2.1358,2.1321,2.144,2.1404,2.1413,2.1426,2.1438,2.1447,2.1441,2.1288,0,0,0,0,0,2.1048,2.1094,2.1122,2.1189,2.1205,2.1219,2.1245,2.1245,2.1277,2.129,2.131,2.134,2.1383,2.1412,2.1453,2.1532,2.1538,2.1567,2.1576,2.1583,2.1591,2.1631,2.1643,2.1512,2.1512,2.1512,0,0,2.1083,2.1108,2.1137,2.1196,2.122,2.1266,2.123,2.1282,2.1316,2.1297,2.1361,2.1377,2.1411,2.1484,2.1517,2.15,2.1628,2.1591,2.1596,2.16,2.1638,2.1651,2.1662,2.1516,2.1515,2.1514,0,0,2.117,2.1195,2.1252,2.1276,2.1312,2.1321,2.1335,2.1368,2.1378,2.1442,2.1429,2.1469,2.1544,2.1568,2.159,2.1684,2.1671,2.1697,2.1744,2.1783,2.1794,2.1803,2.1834,2.1846,2.1705,2.1705,2.1705,0,2.1209,2.128,2.1283,2.1335,2.136,2.1345,2.1402,2.1425,2.1473,2.149,2.147,2.1562,2.1584,2.1661,2.1684,2.1703,2.1717,2.1693,2.1792,2.1801,2.181,2.184,2.1852,2.1708,2.1708,2.1707,2.1707,0,2.1325,2.1374,2.1415,2.1461,2.1491,2.1546,2.1555,2.1585,2.1582,2.1593,2.1657,2.1683,2.1728,2.1746,2.1744,2.1822,2.181,2.1791,2.1755,2.1825,2.1853,2.1865,2.1712,2.1711,2.171,2.1709,0,0,2.1437,2.1482,2.1497,2.1517,2.1555,2.1592,2.1645,2.1688,2.1713,2.1746,2.1789,2.1851,2.1833,2.1858,2.1858,2.1893,2.1963,2.187,2.1871,2.1884,2.2048,2.2061,2.2074,2.1955,2.1957,2.1959,2.2044,0,2.1526,2.1619,2.1622,2.1706,2.1749,2.1735,2.178,2.1808,2.1819,2.1856,2.1868,2.1911,2.1886,2.19,2.1934,2.1948,2.1996,2.1942,2.1993,2.1995,2.1983,2.2089,2.2104,2.2183,2.2056,2.2058,2.2059,0,2.1642,2.1678,2.1767,2.1796,2.1814,2.1855,2.1894,2.1931,2.1961,2.1966,2.1993,2.1988,2.2039,2.2002,2.2072,2.2035,2.2056,2.2066,2.2069,2.2072,2.203,2.2094,2.2208,2.222,2.2077,2.2075,2.2074,0,2.1712,2.1783,2.1844,2.1862,2.1898,2.1927,2.1943,2.1971,2.1996,2.203,2.2046,2.2086,2.2107,2.2137,2.2142,2.2114,2.2211,2.2175,2.2215,2.2215,2.2235,2.2234,2.2353,2.2252,2.2252,2.2252,2.2251,0,2.1811,2.1865,2.1876,2.1914,2.1973,2.1975,2.2033,2.2047,2.2072,2.211,2.2101,2.2137,2.2142,2.2179,2.2183,2.2238,2.2249,2.2253,2.2253,2.2253,2.2252,2.2266,2.226,2.2255,2.2254,2.2253,2.2253,0,2.1899,2.1909,2.1974,2.2003,2.2011,2.2053,2.2077,2.2112,2.2122,2.2171,2.2182,2.2197,2.224,2.2247,2.2298,2.23,2.2367,2.2362,2.2357,2.2355,2.2395,2.239,2.2526,2.2542,2.2432,2.2433,2.2434,0,2.196,2.2001,2.2034,2.2059,2.2077,2.2118,2.2143,2.2147,2.2173,2.2209,2.2239,2.2281,2.2315,2.2384,2.2398,2.2436,2.2431,2.2476,2.2437,2.2435,2.2429,2.2426,2.2429,2.2483,2.2484,2.2485,2.2486,0,2.2067,2.2069,2.2107,2.2145,2.2176,2.2207,2.2236,2.2257,2.2264,2.2294,2.2338,2.2364,2.2415,2.2456,2.2493,2.2509,2.2498,2.2498,2.2509,2.2509,2.2503,2.2505,2.2375,2.2495,2.2494,2.2494,2.2493,2.2493,2.2142,2.2176,2.2204,2.2246,2.2268,2.2295,2.2328,2.2341,2.2378,2.242,2.242,2.2467,2.2493,2.2543,2.256,2.2596,2.2582,2.2598,2.2602,2.2606,2.2608,2.2499,2.2603,2.2603,2.2603,2.2603,2.2603,0,2.2246,2.2263,2.2301,2.2341,2.2373,2.2361,2.2392,2.2419,2.2461,2.2487,2.252,2.2569,2.2608,2.2625,2.2663,2.2688,2.2684,2.2698,2.2695,2.2698,2.262,2.2606,2.27,2.27,2.27,2.27,2.27,2.27,2.2304,2.2361,2.2367,2.2434,2.2451,2.2497,2.2515,2.2539,2.256,2.2615,2.2647,2.2658,2.268,2.2719,2.2754,2.2757,2.2771,2.2786,2.2788,2.2714,2.2704,2.2695,2.2681,2.279,2.279,2.2863,2.2863,2.2864]},{"header":{"parameterUnit":"m.s-1","parameterCategory":1,"la1":30.2991,"la2":30.254,"lo1":-89.0895,"lo2":-89.0444,"dy":0.0017,"dx":0.0017,"nx":28,"ny":28,"refTime":"2024-06-04T09:00:00:Z","depth":0,"parameterNumber":3,"parameterNumberName":"V-component_of_WINDS"},"data":[0,0,0,0,0,0,0,0,0,0,0,0,0,0,0,0,0,0,0,0,0,0,0,0,0,0,0,0,0,0,0,0,0,0,0,0,0,0,0,0,0,0,0,0,0,0,0,0,0,0,0,0,0,0,0,0,0,0,2.5781,2.5782,0,2.5846,2.5846,2.5847,2.5791,2.5789,2.5787,2.5784,2.5845,2.5849,2.5853,0,0,0,0,0,0,0,0,0,0,0,0,0,2.5604,2.5607,2.5781,2.5782,2.5783,2.5846,2.5846,2.5847,2.5792,2.5789,2.5786,2.5783,2.5844,2.5849,2.5853,0,0,0,0,0,0,0,0,0,0,0,0,0,2.5676,2.5609,2.5781,2.5763,2.5762,2.5845,2.5847,2.5848,2.5792,2.5789,2.5785,2.5782,2.5843,2.5848,2.5854,2.5957,0,0,2.5871,2.5873,0,0,0,0,0,0,0,0,2.5672,2.5682,2.5765,2.5764,2.5763,2.5807,2.5806,2.5884,2.5793,2.578,2.5784,2.578,2.5835,2.5841,2.5861,2.596,2.5963,2.5871,2.5875,2.5877,2.5879,0,0,0,0,0,0,0,2.5667,2.5679,2.5807,2.5766,2.5765,2.5749,2.5756,2.5821,2.5826,2.5781,2.5777,2.5786,2.5834,2.5855,2.5862,2.5964,2.5871,2.5876,2.588,2.5882,2.6149,2.6153,0,0,0,0,0,0,2.5665,2.5675,2.5805,2.5809,2.5708,2.5755,2.5762,2.5796,2.5825,2.5826,2.5789,2.5783,2.5847,2.5855,2.5863,2.5985,2.5877,2.5883,2.5886,2.6145,2.615,2.6154,0,0,0,0,0,0,2.5661,2.5677,2.5802,2.5741,2.5756,2.5762,2.58,2.5799,2.5821,2.5831,2.5831,2.581,2.5845,2.5856,2.5934,2.5987,2.5885,2.589,2.6141,2.6147,2.6152,2.6231,0,0,0,0,0,0,2.5656,2.5676,2.5717,2.5742,2.5759,2.5874,2.5804,2.5803,2.5831,2.5824,2.5851,2.5852,2.5843,2.5926,2.594,2.5993,2.5895,2.6136,2.6144,2.615,2.6223,2.6238,2.6251,0,0,0,0,0,2.565,2.5736,2.5719,2.5735,2.5811,2.5877,2.5886,2.5876,2.5836,2.5876,2.5882,2.5851,2.5979,2.5935,2.595,2.6005,2.6133,2.6142,2.615,2.6217,2.6235,2.6251,0,0,0,0,0,0,2.5714,2.5739,2.5721,2.5818,2.5846,2.5867,2.5918,2.5895,2.5934,2.5926,2.5909,2.5916,2.5999,2.601,2.596,2.6106,2.6049,2.6061,2.6095,2.6113,2.6126,2.6121,2.5899,0,0,0,0,0,2.574,2.5794,2.5811,2.5895,2.591,2.5912,2.594,2.5929,2.5957,2.5968,2.598,2.6007,2.6053,2.6084,2.6127,2.6225,2.6229,2.627,2.6284,2.6295,2.6305,2.6356,2.6374,2.6181,2.6181,2.6181,0,0,2.5793,2.5813,2.5847,2.5908,2.5929,2.5982,2.5922,2.5982,2.602,2.5977,2.6052,2.6062,2.609,2.6179,2.6219,2.6191,2.6359,2.6306,2.6315,2.6319,2.6366,2.6385,2.6401,2.6187,2.6186,2.6185,0,0,2.5917,2.5939,2.601,2.6032,2.6064,2.6065,2.6082,2.6107,2.6112,2.6188,2.6156,2.6201,2.6281,2.6302,2.6323,2.6454,2.6427,2.6469,2.654,2.659,2.6605,2.6619,2.6664,2.6681,2.6479,2.6479,2.6479,0,2.5978,2.606,2.6049,2.6111,2.6137,2.6102,2.6173,2.6194,2.6238,2.6256,2.6225,2.6324,2.634,2.6433,2.6465,2.6484,2.6501,2.6465,2.6605,2.6618,2.663,2.6673,2.669,2.6484,2.6483,2.6483,2.6482,0,2.6133,2.619,2.6243,2.6288,2.6321,2.6387,2.6384,2.6418,2.6404,2.6407,2.6483,2.6502,2.6548,2.6569,2.6556,2.6659,2.664,2.6607,2.655,2.6653,2.6693,2.671,2.6491,2.6489,2.6488,2.6486,0,0,2.6299,2.6337,2.6357,2.6376,2.6409,2.6452,2.6515,2.6561,2.659,2.6621,2.6672,2.6741,2.671,2.6734,2.6723,2.6767,2.6867,2.6727,2.6728,2.6752,2.698,2.7004,2.7024,2.6849,2.6853,2.6855,2.6977,0,2.6423,2.6536,2.6527,2.6632,2.6683,2.665,2.6705,2.673,2.6734,2.6776,2.678,2.6828,2.6785,2.6799,2.6841,2.6846,2.6913,2.6837,2.6895,2.6897,2.6888,2.7045,2.7071,2.7185,2.6993,2.6996,2.6997,0,2.6584,2.6622,2.6733,2.6757,2.6778,2.6828,2.6868,2.691,2.6937,2.6936,2.6963,2.6944,2.7006,2.6948,2.7031,2.6981,2.7003,2.7009,2.7013,2.7017,2.6953,2.7052,2.7222,2.7238,2.7022,2.702,2.7018,0,2.6692,2.6771,2.6847,2.6865,2.6895,2.6931,2.6945,2.6968,2.6996,2.7031,2.7048,2.7089,2.7112,2.7143,2.7134,2.7094,2.7219,2.7161,2.7219,2.7219,2.7246,2.7244,2.7421,2.7263,2.7263,2.7263,2.7262,0,2.6831,2.69,2.6896,2.6943,2.7018,2.7007,2.7081,2.709,2.7111,2.7157,2.713,2.7174,2.7161,2.7203,2.7197,2.7266,2.7276,2.7276,2.7274,2.7278,2.7278,2.7292,2.7284,2.7267,2.7266,2.7265,2.7265,0,2.6964,2.6965,2.7046,2.7068,2.7075,2.713,2.7147,2.719,2.7192,2.7251,2.7264,2.7267,2.7315,2.731,2.7364,2.736,2.7445,2.7433,2.7437,2.7434,2.7491,2.7485,2.7682,2.7706,2.7534,2.7536,2.7537,0,2.7053,2.7105,2.7133,2.7163,2.718,2.7228,2.7257,2.7247,2.7277,2.7311,2.7349,2.7395,2.7432,2.751,2.7515,2.7556,2.7544,2.761,2.755,2.7553,2.7543,2.754,2.7544,2.7622,2.7624,2.7625,2.7627,0,2.7209,2.7206,2.7249,2.7293,2.7328,2.7361,2.739,2.7416,2.7408,2.7443,2.7493,2.7522,2.7577,2.7622,2.7661,2.7672,2.7648,2.7646,2.7661,2.7666,2.7665,2.7665,2.7468,2.7641,2.764,2.7639,2.7638,2.7637,2.7321,2.7366,2.7392,2.7441,2.7462,2.7491,2.7532,2.7539,2.7581,2.7627,2.7618,2.7673,2.7697,2.7746,2.7762,2.7804,2.7779,2.7802,2.7807,2.7813,2.7819,2.7659,2.7811,2.781,2.781,2.7809,2.7809,0,2.7475,2.749,2.7535,2.7578,2.7616,2.7591,2.7622,2.7655,2.7705,2.773,2.7766,2.7823,2.7866,2.7875,2.7917,2.7948,2.7938,2.7959,2.7956,2.7959,2.7839,2.7821,2.7967,2.7967,2.7967,2.7967,2.7967,2.7967,2.7559,2.7632,2.7633,2.7716,2.773,2.7786,2.7806,2.7831,2.785,2.7915,2.7952,2.7958,2.7976,2.8018,2.8056,2.8058,2.8073,2.8099,2.8096,2.7983,2.7968,2.7952,2.7935,2.8103,2.8103,2.8212,2.8213,2.8214]}]]